STARLINK-4676, 53598

Orbit data source: Space-Track

STARLINK-4676, 53598 is a payload satellite owned by SpaceX/Seattle (US) in LEO that was launched on Sun, 28 Aug 2022 UTC via an FALCON 9 launch vehicle from the Air Force Eastern Test Range (AFETR). Payload-class satellites include a variety of spacecraft equipped with specific instruments for various scientific and technological missions. These include communications satellites like Starlink; space stations such as the ISS; scientific satellites like the Hubble; Earth observation satellites from companies like Planet Labs, Umbra, and HawkEye 360; GPS; miniature CubeSats for education and research; and military/defense satellites.

Loading next visibility...
Identifier
53598, 2022-104L
Orbit
LEO
Country
Flag of USUS
Related business
Manufacturer
SpaceX/Seattle
Mission
Operational Commercial Communications
Bus & Motor
STARLINK, Unknown motor
Mass
300 kg wet, ~290 kg dry
Launch date (UTC)
2022-08-28 (3 years ago)
Launch vehicle
FALCON 9
Launch site
Air Force Eastern Test Range (AFETR)
Object type
Payload
Rocket body
Debris
Shape & HBR
Box + 1 Pan, 10.1 m
Radar Cross Section
13.562 m², Large (>1 m²)

Expand to show TLE details & history
Last TLE update: 2 days ago

TLE from 2 days ago
0 STARLINK-4676
1 53598U 22104L   25299.91844837  .00001740  00000-0  12739-3 0  9997
2 53598  53.2164 124.3799 0001365  88.0012 272.1137 15.08844930175426
Epoch: 2025-10-26T22:02Z
TLE epoch observation values (Epoch: 2025-10-26T22:02:33.939Z)
Latitude
0.00004°
Longitude
118.21076°
Altitude
540.591 km
Speed
7.593 km/s
True Right ascension
08h 17m 31s
True Declination
0° 00' 00"
Sunlit
Object was in daylight at epoch
Visualization orbit readout
Latitude
Unknown
Longitude
Unknown
Altitude
Unknown
Speed
Unknown
Apparent Right ascension
Unknown
Apparent Declination
Unknown
Sunlit
N/A
Visualization observer readout
Local Sidereal Time
07:02:34
Azimuth
Unknown
Elevation
Unknown
Doppler factor
Unknown
Orbital elements
Apogee altitude
540.918 km
Perigee altitude
539.029 km
Semi-major axis
6,918.11 km
Eccentricity
0.00014
Inclination
53.2164°
RAAN
124.3799°
Arg. of periapsis
88.0012°
True anomaly
272.09807°
Mean anomaly
272.1137°
Eccentric anomaly
272.10588°
Mean motion
3.77192 °/min
Orbital period
95.44 mins
BSTAR
0.00012739
Loading maneuver chart data...
Computing Atmospheric mass density...
Loading historical data...
Loading historical data...
Loading historical data...
Loading historical data...
Loading historical data...
Loading historical data...
Loading historical data...

Documentation

Showing up to 5 results
|